| time (UTC) | temp F | wind direction | speed knots | gust knots | rain 1hr in | rain 24hr in | rain mn in | humidity % | barometer mb |
| 20260507174423 | 61 | 5 | 4.3 | 14.8 | 0.00 | 0.32 | 0.03 | 39 | 1005.7 |
| 20260507172827 | 61 | 350 | 3.5 | 13.9 | 0.00 | 0.32 | 0.03 | 43 | 1005.7 |
| 20260507164423 | 61 | 302 | 3.5 | 13.0 | 0.00 | 0.32 | 0.03 | 39 | 1006.2 |
| 20260507161420 | 60 | 339 | 3.5 | 13.9 | 0.00 | 0.32 | 0.03 | 41 | 1006.4 |
| 20260507154422 | 60 | 221 | 3.5 | 12.2 | 0.00 | 0.32 | 0.03 | 46 | 1006.6 |
| 20260507151358 | 58 | 313 | 3.5 | 13.0 | 0.00 | 0.32 | 0.03 | 58 | 1007.0 |
| 20260507145726 | 57 | 276 | 1.7 | 7.8 | 0.00 | 0.32 | 0.03 | 64 | 1007.1 |
| 20260507142716 | 56 | 211 | 1.7 | 7.0 | 0.00 | 0.32 | 0.03 | 68 | 1007.0 |
| 20260507134335 | 56 | 11 | 1.7 | 7.8 | 0.00 | 0.32 | 0.03 | 67 | 1006.9 |
| 20260507132707 | 55 | 271 | 1.7 | 7.8 | 0.00 | 0.32 | 0.03 | 68 | 1007.3 |
| 20260507124320 | 53 | 242 | 1.7 | 7.8 | 0.00 | 0.32 | 0.03 | 73 | 1007.3 |
| 20260507121326 | 51 | 267 | 1.7 | 8.7 | 0.00 | 0.32 | 0.03 | 81 | 1007.6 |
| 20260507114307 | 48 | 349 | 0.9 | 6.1 | 0.00 | 0.32 | 0.03 | 90 | 1007.6 |
| 20260507111306 | 47 | 0 | 0.0 | 2.6 | 0.00 | 0.32 | 0.03 | 92 | 1007.4 |
| 20260507104304 | 46 | 314 | 0.0 | 4.3 | 0.00 | 0.32 | 0.03 | 93 | 1007.0 |
| 20260507101303 | 46 | 13 | 0.0 | 3.5 | 0.00 | 0.32 | 0.03 | 93 | 1006.7 |
| 20260507094300 | 47 | 259 | 0.0 | 4.3 | 0.00 | 0.32 | 0.03 | 93 | 1007.2 |
| 20260507091259 | 47 | 9 | 0.0 | 4.3 | 0.01 | 0.32 | 0.03 | 92 | 1006.9 |
| 20260507084258 | 48 | 296 | 0.0 | 3.5 | 0.03 | 0.32 | 0.03 | 92 | 1007.1 |
| 20260507081300 | 49 | 317 | 0.0 | 4.3 | 0.02 | 0.31 | 0.02 | 91 | 1006.5 |
| 20260507074239 | 50 | 269 | 0.9 | 6.1 | 0.00 | 0.29 | 0.00 | 89 | 1006.8 |
| 20260507071241 | 50 | 33 | 0.0 | 2.6 | 0.00 | 0.29 | 0.00 | 89 | 1006.1 |
| 20260507064233 | 51 | 355 | 0.9 | 7.0 | 0.00 | 0.29 | 0.00 | 89 | 1006.1 |
| 20260507061234 | 51 | 222 | 0.9 | 7.0 | 0.00 | 0.29 | 0.00 | 89 | 1005.8 |
| 20260507054233 | 51 | 264 | 0.9 | 7.0 | 0.00 | 0.29 | 0.00 | 90 | 1006.6 |
| 20260507051224 | 52 | 308 | 0.9 | 7.0 | 0.00 | 0.29 | 0.00 | 91 | 1006.5 |
| 20260507044221 | 53 | 0 | 1.7 | 7.8 | 0.00 | 0.29 | 0.00 | 93 | 1006.0 |
| 20260507041222 | 54 | 306 | 0.9 | 7.8 | 0.00 | 0.29 | 0.00 | 94 | 1006.3 |
| 20260507034222 | 55 | 336 | 3.5 | 8.7 | 0.00 | 0.29 | 0.29 | 95 | 1005.9 |
| 20260507032550 | 56 | 14 | 0.9 | 8.7 | 0.00 | 0.29 | 0.29 | 96 | 1005.3 |
| 20260507024208 | 59 | 277 | 0.0 | 2.6 | 0.00 | 0.29 | 0.29 | 97 | 1005.2 |
| 20260507021153 | 59 | 149 | 0.0 | 1.7 | 0.01 | 0.29 | 0.29 | 97 | 1004.6 |
| 20260507014133 | 59 | 130 | 0.0 | 4.3 | 0.01 | 0.29 | 0.29 | 97 | 1004.7 |
| 20260507011126 | 59 | 192 | 0.0 | 4.3 | 0.00 | 0.28 | 0.28 | 97 | 1004.7 |
| 20260507004125 | 59 | 190 | 0.0 | 5.2 | 0.00 | 0.28 | 0.28 | 96 | 1004.7 |
| 20260507001123 | 59 | 126 | 0.0 | 3.5 | 0.00 | 0.28 | 0.28 | 96 | 1004.6 |
| 20260506234122 | 59 | 157 | 0.0 | 7.0 | 0.04 | 0.28 | 0.28 | 96 | 1004.4 |
| 20260506232509 | 59 | 162 | 0.9 | 6.1 | 0.05 | 0.28 | 0.28 | 96 | 1004.4 |
| 20260506224044 | 59 | 209 | 0.9 | 6.1 | 0.03 | 0.24 | 0.24 | 96 | 1004.6 |
| 20260506221040 | 60 | 134 | 0.9 | 6.1 | 0.05 | 0.23 | 0.23 | 95 | 1004.7 |
| 20260506214040 | 60 | 149 | 0.9 | 7.0 | 0.08 | 0.21 | 0.21 | 95 | 1004.8 |
| 20260506211043 | 60 | 171 | 1.7 | 12.2 | 0.10 | 0.18 | 0.18 | 94 | 1005.0 |
| 20260506204025 | 61 | 166 | 0.9 | 10.4 | 0.05 | 0.13 | 0.13 | 94 | 1005.3 |
| 20260506201028 | 61 | 122 | 0.9 | 7.8 | 0.01 | 0.08 | 0.09 | 93 | 1005.4 |
| 20260506195401 | 62 | 201 | 0.9 | 8.7 | 0.03 | 0.08 | 0.08 | 93 | 1005.5 |
| 20260506191012 | 63 | 167 | 0.0 | 2.6 | 0.07 | 0.07 | 0.07 | 91 | 1005.2 |
| 20260506184012 | 64 | 26 | 0.0 | 3.5 | 0.05 | 0.05 | 0.05 | 89 | 1005.7 |
| 20260506181024 | 67 | 262 | 0.9 | 7.8 | 0.00 | 0.00 | 0.01 | 80 | 1006.3 |